Weather History for Canby, MN

Change the Weather History Date:

Thursday, January 23, 2014

  Actual Average (KMML) Record (KMML)
Temperature  
Mean Temperature 0 °F -  
Max Temperature 14 °F 26 °F 59 °F (1981)
Min Temperature -13 °F 6 °F -23 °F (1963)
Degree Days  
Heating Degree Days 64    
Moisture  
Dew Point -9 °F    
Average Humidity 70    
Maximum Humidity 79    
Minimum Humidity 49    
Precipitation  
Precipitation 0.00 in - - ()
Sea Level Pressure  
Sea Level Pressure 30.56 in    
Wind  
Wind Speed 12 mph (West)    
Max Wind Speed 28 mph    
Max Gust Speed 40 mph    
Visibility 10 miles    
Events      
Averages and records for this station are not official NWS values.
T = Trace of Precipitation, MM = Missing Value Source: NWS Daily Summary

Daily Weather History Graph

Daily Weather History Graph

Search for Another Location

Airport:

Trip Planner

Search our weather history database for the weather conditions in past years. The results will help you decide how hot, cold, wet, or windy it might be!

Date:

Astronomy

Jan. 23, 2014 Rise Set
Actual Time 7:53 AM CST 5:21 PM CST
Civil Twilight 7:21 AM CST 5:53 PM CST
Nautical Twilight 6:45 AM CST 6:28 PM CST
Astronomical Twilight 6:11 AM CST 7:03 PM CST
Moon 12:11 AM CST (1/23) 11:09 AM CST (1/23)
Length of Visible Light 10h 31m
Length of Day
9h 28m
Waning Gibbous, 55% of the Moon is Illuminated
Jan 23
Waning Gibbous
Jan 23
Last Quarter
Jan 30
New
Feb 6
First Quarter
Feb 14
Full

Hourly Weather History & Observations

Time (CST) Temp. Windchill Dew Point Humidity Pressure Visibility Wind Dir Wind Speed Gust Speed Precip Events Conditions
12:14 AM -6.9 °F -28.9 °F -12.6 °F 76% 30.62 in 7.0 mi NNW 16.1 mph 23.0 mph N/A   Scattered Clouds
12:35 AM -7.2 °F -27.1 °F -13.0 °F 76% 30.62 in 10.0 mi NNW 12.7 mph - N/A   Scattered Clouds
12:55 AM -7.6 °F -26.6 °F -13.2 °F 77% 30.63 in 10.0 mi NNW 11.5 mph 17.3 mph N/A   Clear
1:15 AM -7.8 °F -26.8 °F -13.2 °F 77% 30.63 in 10.0 mi NNW 11.5 mph 16.1 mph N/A   Clear
1:34 AM -7.8 °F -27.7 °F -13.4 °F 77% 30.63 in 10.0 mi NNW 12.7 mph - N/A   Scattered Clouds
1:54 AM -8.5 °F -26.8 °F -13.9 °F 77% 30.64 in 10.0 mi NNW 10.4 mph - N/A   Clear
2:15 AM -8.7 °F -27.0 °F -13.9 °F 78% 30.64 in 10.0 mi NW 10.4 mph - N/A   Clear
2:34 AM -8.9 °F -25.0 °F -14.1 °F 78% 30.66 in 10.0 mi NW 8.1 mph - N/A   Clear
2:54 AM -9.0 °F -26.4 °F -14.4 °F 77% 30.67 in 10.0 mi NW 9.2 mph - N/A   Clear
3:15 AM -9.4 °F -27.9 °F -14.8 °F 77% 30.67 in 10.0 mi NW 10.4 mph - N/A   Clear
3:34 AM -9.4 °F -27.9 °F -14.8 °F 77% 30.68 in 10.0 mi NW 10.4 mph 16.1 mph N/A   Clear
3:54 AM -9.4 °F -27.9 °F -14.8 °F 77% 30.68 in 10.0 mi NW 10.4 mph - N/A   Clear
4:15 AM -9.4 °F -27.9 °F -14.8 °F 77% 30.68 in 10.0 mi NW 10.4 mph - N/A   Clear
4:34 AM -9.8 °F -27.3 °F -14.8 °F 78% 30.69 in 10.0 mi NW 9.2 mph - N/A   Clear
4:54 AM -9.9 °F -27.5 °F -15.0 °F 78% 30.70 in 10.0 mi NW 9.2 mph - N/A   Clear
5:15 AM -10.3 °F -27.9 °F -15.3 °F 78% 30.71 in 10.0 mi NW 9.2 mph - N/A   Clear
5:34 AM -10.7 °F -28.4 °F -15.7 °F 78% 30.71 in 10.0 mi NW 9.2 mph - N/A   Clear
5:54 AM -11.2 °F -27.8 °F -16.1 °F 79% 30.71 in 10.0 mi NW 8.1 mph - N/A   Clear
6:15 AM -12.3 °F -26.1 °F -17.1 °F 79% 30.72 in 10.0 mi WNW 5.8 mph - N/A   Clear
6:34 AM -13.0 °F -27.0 °F -18.0 °F 78% 30.72 in 10.0 mi WNW 5.8 mph - N/A   Clear
6:55 AM -13.4 °F -29.0 °F -18.4 °F 78% 30.73 in 10.0 mi WNW 6.9 mph - N/A   Clear
7:14 AM -13.7 °F -27.8 °F -18.6 °F 79% 30.73 in 10.0 mi West 5.8 mph - N/A   Clear
7:35 AM -13.0 °F -27.0 °F -18.4 °F 77% 30.74 in 10.0 mi West 5.8 mph - N/A   Clear
7:54 AM -13.5 °F -25.7 °F -18.8 °F 77% 30.74 in 10.0 mi West 4.6 mph - N/A   Clear
8:15 AM -12.8 °F -28.4 °F -18.4 °F 76% 30.75 in 10.0 mi West 6.9 mph - N/A   Clear
8:35 AM -11.9 °F -27.3 °F -17.5 °F 76% 30.74 in 10.0 mi West 6.9 mph - N/A   Clear
8:54 AM -10.8 °F -28.6 °F -16.8 °F 75% 30.74 in 10.0 mi West 9.2 mph - N/A   Clear
9:15 AM -9.6 °F -25.8 °F -15.9 °F 74% 30.75 in 10.0 mi West 8.1 mph - N/A   Clear
9:35 AM -8.5 °F -27.8 °F -14.8 °F 74% 30.75 in 10.0 mi WNW 11.5 mph - N/A   Clear
9:54 AM -7.4 °F -27.3 °F -14.1 °F 73% 30.75 in 10.0 mi WNW 12.7 mph - N/A   Clear
10:15 AM -6.7 °F -23.5 °F -13.9 °F 71% 30.75 in 10.0 mi WNW 9.2 mph - N/A   Clear
10:35 AM -4.9 °F -23.2 °F -11.9 °F 72% 30.74 in 10.0 mi West 11.5 mph - N/A   Clear
10:54 AM -4.0 °F -21.2 °F -11.2 °F 71% 30.74 in 10.0 mi WNW 10.4 mph - N/A   Clear
11:15 AM -2.6 °F -21.1 °F -10.1 °F 70% 30.73 in 10.0 mi WNW 12.7 mph - N/A   Clear
11:35 AM -1.5 °F -17.1 °F -9.0 °F 70% 30.73 in 10.0 mi West 9.2 mph - N/A   Clear
11:54 AM -0.9 °F -16.4 °F -8.7 °F 70% 30.72 in 10.0 mi West 9.2 mph - N/A   Clear
12:15 PM -0.0 °F -15.3 °F -8.0 °F 69% 30.72 in 10.0 mi West 9.2 mph - N/A   Clear
12:35 PM 0.3 °F -13.8 °F -7.6 °F 69% 30.71 in 10.0 mi West 8.1 mph - N/A   Clear
12:54 PM 1.2 °F -14.7 °F -6.5 °F 70% 30.69 in 10.0 mi West 10.4 mph - N/A   Clear
1:15 PM 1.9 °F -14.7 °F -6.7 °F 67% 30.68 in 10.0 mi West 11.5 mph 17.3 mph N/A   Clear
1:35 PM 2.7 °F -15.3 °F -6.3 °F 66% 30.66 in 10.0 mi West 13.8 mph - N/A   Clear
1:55 PM 3.4 °F -14.4 °F -5.4 °F 67% 30.64 in 10.0 mi West 13.8 mph 18.4 mph N/A   Clear
2:14 PM 4.3 °F -10.9 °F -4.7 °F 66% 30.63 in 10.0 mi West 10.4 mph - N/A   Clear
2:35 PM 5.2 °F -8.9 °F -4.2 °F 65% 30.61 in 10.0 mi West 9.2 mph - N/A   Clear
2:55 PM 5.0 °F -10.0 °F -4.4 °F 65% 30.61 in 10.0 mi WSW 10.4 mph - N/A   Clear
3:15 PM 5.2 °F -8.9 °F -4.2 °F 65% 30.60 in 10.0 mi WSW 9.2 mph - N/A   Clear
3:35 PM 5.0 °F -11.6 °F -4.4 °F 65% 30.58 in 10.0 mi WSW 12.7 mph - N/A   Clear
3:55 PM 5.0 °F -9.1 °F -4.2 °F 66% 30.58 in 10.0 mi WSW 9.2 mph - N/A   Clear
4:14 PM 4.8 °F -8.3 °F -4.4 °F 66% 30.57 in 10.0 mi WSW 8.1 mph - N/A   Clear
4:35 PM 4.6 °F -9.5 °F -4.5 °F 66% 30.55 in 10.0 mi SW 9.2 mph - N/A   Clear
4:55 PM 4.5 °F -9.8 °F -4.4 °F 67% 30.53 in 10.0 mi SW 9.2 mph - N/A   Clear
5:15 PM 4.1 °F -12.0 °F -4.2 °F 69% 30.51 in 10.0 mi SW 11.5 mph - N/A   Clear
5:34 PM 3.6 °F -10.9 °F -4.2 °F 70% 30.50 in 10.0 mi SW 9.2 mph - N/A   Clear
5:55 PM 3.2 °F -10.3 °F -4.0 °F 72% 30.49 in 10.0 mi SSW 8.1 mph - N/A   Clear
6:15 PM 4.1 °F -9.2 °F -3.3 °F 71% 30.46 in 10.0 mi SSW 8.1 mph - N/A   Clear
6:35 PM 3.6 °F -8.7 °F -3.5 °F 73% 30.45 in 10.0 mi South 6.9 mph - N/A   Clear
6:55 PM 4.1 °F -12.7 °F -2.7 °F 73% 30.42 in 10.0 mi SSW 12.7 mph 17.3 mph N/A   Clear
7:15 PM 5.5 °F -10.2 °F -2.2 °F 70% 30.39 in 10.0 mi SSW 11.5 mph 17.3 mph N/A   Clear
7:35 PM 6.6 °F -10.9 °F -1.8 °F 68% 30.37 in 10.0 mi SSW 15.0 mph 19.6 mph N/A   Clear
7:54 PM 7.5 °F -9.7 °F -1.7 °F 66% 30.33 in 10.0 mi SSW 15.0 mph 18.4 mph N/A   Clear
8:13 PM 10.0 °F -6.5 °F -1.3 °F 60% 30.30 in 10.0 mi SSW 15.0 mph 25.3 mph N/A   Clear
8:34 PM 10.2 °F -10.5 °F -1.8 °F 58% 30.26 in 10.0 mi SW 25.3 mph 34.5 mph N/A   Clear
8:55 PM 10.4 °F -11.0 °F -2.2 °F 57% 30.24 in 10.0 mi SW 27.6 mph 34.5 mph N/A   Clear
9:14 PM 10.9 °F -8.3 °F -3.1 °F 53% 30.23 in 10.0 mi SW 21.9 mph 32.2 mph N/A   Clear
9:35 PM 11.1 °F -9.7 °F -3.1 °F 53% 30.20 in 10.0 mi SW 26.5 mph 40.3 mph N/A   Clear
9:54 PM 10.8 °F -9.8 °F -3.1 °F 54% 30.17 in 10.0 mi SW 25.3 mph 38.0 mph N/A   Clear
10:15 PM 11.3 °F -9.1 °F -2.6 °F 54% 30.13 in 10.0 mi SW 25.3 mph 33.4 mph N/A   Clear
10:34 PM 12.0 °F -8.5 °F -2.9 °F 51% 30.11 in 10.0 mi SW 26.5 mph 34.5 mph N/A   Clear
10:55 PM 12.2 °F -7.9 °F -2.9 °F 51% 30.09 in 10.0 mi SW 25.3 mph 31.1 mph N/A   Clear
11:15 PM 13.5 °F -5.8 °F -2.4 °F 49% 30.06 in 10.0 mi SW 24.2 mph 35.7 mph N/A   Clear
11:34 PM 14.7 °F -4.9 °F -0.6 °F 51% 30.03 in 10.0 mi SW 26.5 mph 39.1 mph N/A   Clear
11:55 PM 14.2 °F -4.9 °F 0.9 °F 56% 30.01 in 10.0 mi SW 24.2 mph 36.8 mph N/A   Scattered Clouds